OBJECT B

Satellite information

Favourite Embed

Satellite Type and Status

UNKNOWNIN ORBIT

Key statistics

Satellite OBJECT B at a glance.

Uptime

1304

Days in orbit

Revolutions

≈ 13.3

Per day

Orbit

LEO

Low Earth Orbit

Inclination

86.0

Latest

Satellite identification and parameters

Extended collection of information and parameters for OBJECT B.

Object identification

Identified? True

Debris? False

Object name: OBJECT B

International designator: 2022-056B

Object number (NORAD): 52717

Object ID (CCSDS): 52717

Country: PEOPLES REPUBLIC OF CHINA (PRC)

Current information (Y/N): Y

RCS size: LARGE

Orbital parameters

Period: 108.304 minutes

Inclination: 86.0069 deg

SMA: 7526.455 km

Apoapsis: 1181.706 km

Periapsis: 1114.934 km

RAAN: 170.9155 deg

Eccentricy: 0.00443579

Argument of periapsis: 183.5164 deg

Mean anomaly: 176.5667 deg

Mean motion: 13.29587971 rev/day

Mean motion (dot): 0.00000258 rev/day2

B* drag term: 0.00051963797 1/REarth

Two-line elements (TLE)

Creation date: Dec. 14, 2025, 3:07 a.m.

Reference frame: TEME

Reference center: EARTH

Epoch: Dec. 13, 2025, 3:03 p.m. UTC

TLE line 0: 0 OBJECT B

TLE line 1: 1 52717U 22056B 25347.62720553 .00000258 00000-0 51964-3 0 9991

TLE line 2: 2 52717 86.0069 170.9155 0044358 183.5164 176.5667 13.29587971173655

Live tracking on map

Real-time ground track for satellite OBJECT B.

In-orbit conjunctions

There are no conjunctions computed for OBJECT B, at the moment. Check back to stay up to date, as we update our databases every day.

Go to all conjunctions

Associated space launch

"Ronghe Shiyan Weixing" (RSW) = "Integrated Experimental Satellite" are test satellites that will be used to develop a state-owned Chinese low-earth orbit constellation, Xingwang, consisting of several thousand satellites.

OBJECT B was lifted into orbit during the mission ‘Long March 2C/YZ-1S | RSW-04 - 06’, on board a Long March 2C/YZ-1S space rocket.

The launch took place on May 20, 2022, 10:30 a.m. from Launch Area 94 (SLS-2 / 603).

For more information about the launch, click the button.

Launch to space Long March 2C/YZ-1S | RSW-04 - 06
Long March 2C/YZ-1S | RSW-04 - 06

Agency: N/A

Status: Launch Successful

Launch date: May 20, 2022, 10:30 a.m. UTC

Rocket: Long March 2C/YZ-1S

Launch pad: Launch Area 94 (SLS-2 / 603)

Location: Jiuquan Satellite Launch Center, People's Republic of China

...

Latest news about this satellite

There are no fresh news available about this satellite. Check back as we update our databases every day.


Newsletter sign-up

Weekly statistics, charts and insights to help you stay on top of the space industry.